GEFSNE_con_probscp_264.txt.gz
Probability
4 5 8 9 9 9 10 11 9 6 4 3 3 3 5 6 5 4 3 1 0 0 0 0 0 0 0 0 0 0 0 0 0 0 0 0 0 0
6 7 8 10 10 9 9 11 10 6 4 3 3 3 4 4 4 4 2 0 0 0 0 0 0 0 0 0 0 0 0 0 0 0 0 0 0 0
9 9 9 10 10 8 8 10 10 8 5 4 4 4 4 3 3 3 1 0 0 0 0 0 0 0 0 0 0 0 0 0 0 0 0 0 0 0
11 10 10 10 10 8 8 9 10 9 7 6 6 6 4 3 3 3 2 1 0 0 0 0 0 0 0 0 0 0 0 0 0 0 0 0 0 0
13 13 12 12 12 11 9 8 9 9 8 7 6 6 5 4 3 3 2 1 0 0 0 0 0 0 0 0 0 0 0 0 0 0 0 0 0 0
16 14 13 12 13 13 10 8 9 10 9 8 7 6 6 5 4 3 2 0 0 0 0 0 0 0 0 0 0 0 0 0 0 0 0 0 0 0
15 14 13 12 11 10 9 8 9 9 9 8 7 6 6 6 6 5 3 1 0 0 0 0 0 0 0 0 0 0 0 0 0 0 0 0 0 0
16 16 16 14 11 8 6 6 6 7 7 7 7 6 6 6 6 6 4 1 0 0 0 0 0 0 0 0 0 0 0 0 0 0 0 0 0 0
21 20 19 18 16 12 8 6 5 6 6 6 6 6 6 7 6 6 4 1 0 0 0 0 0 0 0 0 0 0 0 0 0 0 0 0 0 0
25 24 22 22 19 16 13 10 8 7 5 5 5 4 4 5 5 4 3 1 0 0 0 0 0 0 0 0 0 0 0 0 0 0 0 0 0 0
28 25 22 21 17 14 15 15 12 9 4 2 2 1 2 2 3 2 1 0 0 0 0 0 0 0 0 0 0 0 0 0 0 0 0 0 0 0
28 26 21 16 10 8 13 17 14 10 5 2 0 0 0 0 1 1 0 0 0 0 0 0 0 0 0 0 0 0 0 0 0 0 0 0 0 0
28 27 21 11 4 3 9 14 12 8 6 3 1 0 0 0 0 0 0 0 0 0 0 0 0 0 0 0 0 0 0 0 0 0 0 0 0 0
26 25 18 8 1 1 4 6 6 5 5 4 2 0 0 0 0 0 0 0 0 0 0 0 0 0 0 0 0 0 0 0 0 0 0 0 0 0
18 16 9 3 0 0 0 1 2 3 4 5 4 1 0 0 0 0 0 0 0 0 0 0 0 0 0 0 0 0 0 0 0 0 0 0 0 0
10 7 4 3 2 2 1 1 1 3 4 5 5 3 1 0 0 0 0 0 0 0 0 0 0 0 0 0 0 0 0 0 0 0 0 0 0 0
9 7 6 7 7 6 5 4 3 3 3 4 5 4 2 0 0 0 0 0 0 0 0 0 0 0 0 0 0 0 0 0 0 0 0 0 0 0
10 10 10 11 12 11 9 6 5 4 4 4 4 3 1 0 0 0 0 0 0 0 0 0 0 0 0 0 0 0 0 0 0 0 0 0 0 0
10 11 13 14 14 13 10 8 7 6 5 4 3 2 1 0 0 0 0 0 0 0 0 0 0 0 0 0 0 0 0 0 0 0 0 0 0 0
9 11 13 14 14 12 10 9 9 7 5 4 3 2 1 0 0 0 0 0 0 0 0 0 0 0 0 0 0 0 0 0 0 0 0 0 0 0
9 10 13 14 12 11 10 10 9 8 5 4 3 2 1 0 0 1 1 0 0 0 0 0 0 0 0 0 0 0 0 0 0 0 0 0 0 0
8 9 11 13 11 11 10 10 9 8 6 4 2 1 0 0 0 1 1 0 0 0 0 0 0 0 0 0 0 0 0 0 1 0 0 0 0 0
5 8 10 10 10 10 9 9 9 8 6 3 1 0 0 0 0 1 1 0 0 0 0 0 0 0 0 0 0 0 0 0 1 0 0 0 0 0

GEFSNE_con_probscp_270.txt.gz
Probability
22 21 20 18 15 15 17 20 20 15 14 17 19 17 14 9 4 2 2 1 0 0 0 0 0 0 0 0 0 0 0 0 0 0 0 0 0 0
20 20 19 17 16 16 17 19 19 16 15 16 17 15 13 9 5 2 1 0 0 0 0 0 0 0 0 0 0 0 0 0 0 0 0 0 0 0
16 16 17 17 17 19 19 19 19 18 16 15 14 13 11 9 6 3 1 0 0 0 0 0 0 0 0 0 0 0 0 0 0 0 0 0 0 0
16 15 16 18 19 20 21 21 20 19 17 15 13 12 11 9 7 4 1 0 0 0 0 0 0 0 0 0 0 0 0 0 0 0 0 0 0 0
19 18 18 20 22 23 24 24 21 18 18 17 15 12 10 9 8 4 2 1 1 0 0 0 0 0 0 0 0 0 0 0 0 0 0 0 0 0
23 23 23 24 26 26 26 26 23 20 19 19 16 13 10 9 8 5 3 2 1 0 0 0 0 0 0 0 0 0 0 0 0 0 0 0 0 0
28 28 26 24 24 24 23 23 23 21 20 19 18 15 11 9 7 5 4 3 1 0 0 0 0 0 0 0 0 0 0 0 0 0 0 0 0 0
31 30 25 21 20 18 16 15 15 16 17 17 17 16 14 11 8 6 4 3 2 1 0 0 0 0 0 0 0 0 0 0 0 0 0 0 0 0
33 31 25 20 20 19 17 14 12 12 12 14 14 15 15 13 11 8 5 4 4 2 1 0 0 0 0 0 0 0 0 0 0 0 0 0 0 0
33 31 27 24 23 22 21 21 19 15 10 8 9 10 11 12 12 10 7 6 4 3 1 0 0 0 0 0 0 0 0 0 0 0 0 0 0 0
28 27 27 25 21 19 22 25 25 20 12 6 4 4 6 8 9 9 8 5 4 3 1 0 0 0 0 0 0 0 0 0 0 0 0 0 0 0
25 25 24 21 15 13 17 21 23 20 15 10 6 5 5 5 6 7 7 5 3 3 1 0 0 0 0 0 0 0 0 0 0 0 0 0 0 0
24 24 21 15 8 7 11 15 16 16 17 17 15 13 10 7 6 7 6 5 4 4 2 1 0 0 0 0 0 0 0 0 0 0 0 0 0 0
20 19 16 9 4 3 5 8 9 11 16 20 20 17 13 10 9 7 6 5 5 4 3 2 1 0 0 0 0 0 0 0 0 0 0 0 0 0
14 13 10 5 2 1 2 2 5 10 15 19 20 16 13 11 10 8 6 3 2 3 3 3 3 1 0 0 0 0 0 0 0 0 0 0 0 0
12 11 8 5 4 4 4 3 5 10 15 17 18 16 12 10 9 8 6 3 1 1 2 3 3 1 0 0 0 0 0 0 0 0 0 0 0 0
11 11 11 10 10 12 11 9 10 12 14 15 17 16 12 9 7 7 6 4 1 0 0 1 1 0 0 0 0 0 0 0 0 0 0 0 0 0
12 12 13 14 16 17 16 14 13 14 15 15 16 15 12 9 7 6 6 5 2 0 0 0 0 0 0 0 0 0 0 0 0 0 0 0 0 0
13 13 13 14 16 17 16 15 14 14 15 16 15 14 12 10 8 7 6 5 3 1 0 0 0 0 0 0 0 0 0 0 0 0 0 0 0 0
13 13 13 14 16 16 14 12 11 12 14 16 16 15 13 12 11 8 6 4 2 1 0 0 0 0 0 0 0 0 0 0 0 0 0 0 0 0
13 13 13 13 14 14 12 9 9 10 13 15 16 14 13 13 12 10 7 4 2 0 0 0 0 0 0 0 0 0 0 0 0 0 0 0 0 0
12 12 12 11 11 11 10 8 8 9 11 13 13 11 11 11 12 10 6 4 2 1 0 0 0 0 0 0 0 0 0 0 0 0 0 0 0 0
11 11 10 9 9 10 9 9 8 8 10 12 11 9 8 10 11 9 5 4 2 1 0 0 1 1 1 0 0 0 0 0 0 0 0 0 0 0

GEFSNE_con_probscp_276.txt.gz
Probability
6 5 4 4 4 4 5 6 5 3 2 2 2 2 3 2 0 0 0 0 0 0 0 0 0 0 0 0 0 0 0 0 0 0 0 0 0 0
7 6 6 5 4 4 4 5 5 4 3 2 3 3 4 2 1 0 0 0 0 0 0 0 0 0 0 0 0 0 0 0 0 0 0 0 0 0
8 7 6 6 4 4 4 4 5 5 4 3 3 3 3 2 1 0 0 0 0 0 0 0 0 0 0 0 0 0 0 0 0 0 0 0 0 0
9 8 7 7 6 6 6 5 4 5 6 5 4 3 2 2 1 1 0 0 0 0 0 0 0 0 0 0 0 0 0 0 0 0 0 0 0 0
9 8 8 8 8 8 8 7 5 5 7 7 5 3 2 1 2 1 0 0 0 0 0 0 0 0 0 0 0 0 0 0 0 0 0 0 0 0
9 9 8 7 8 8 9 9 8 7 7 7 5 4 2 2 2 1 0 0 0 0 0 0 0 0 0 0 0 0 0 0 0 0 0 0 0 0
13 12 9 8 7 7 8 9 10 10 8 7 5 3 2 2 3 2 1 0 0 0 0 0 0 0 0 0 0 0 0 0 0 0 0 0 0 0
16 15 13 10 8 7 7 8 9 10 9 8 6 4 2 2 3 2 1 0 0 0 0 0 0 0 0 0 0 0 0 0 0 0 0 0 0 0
17 16 14 11 8 7 6 6 6 7 9 8 7 5 3 2 2 2 1 0 0 0 0 0 0 0 0 0 0 0 0 0 0 0 0 0 0 0
16 16 14 12 9 7 7 6 5 5 6 7 6 5 3 2 2 2 2 1 0 0 0 0 0 0 0 0 0 0 0 0 0 0 0 0 0 0
16 16 14 12 9 8 8 8 7 6 5 4 3 2 1 1 1 2 3 1 1 0 0 0 0 0 0 0 0 0 0 0 0 0 0 0 0 0
17 16 13 10 7 5 7 9 9 7 5 3 2 1 1 0 1 2 3 2 2 1 0 0 0 0 0 0 0 0 0 0 0 0 0 0 0 0
18 16 12 8 4 3 5 8 7 5 5 4 3 3 3 2 1 2 2 2 3 2 1 0 0 0 0 0 0 0 0 0 0 0 0 0 0 0
17 14 10 6 3 1 3 4 4 4 7 7 5 4 4 4 3 2 2 2 3 3 2 0 0 0 0 0 0 0 0 0 0 0 0 0 0 0
11 9 6 4 2 1 1 1 2 5 8 9 7 4 4 4 4 4 3 2 3 3 2 0 0 0 0 0 0 0 0 0 0 0 0 0 0 0
4 4 3 2 2 2 2 1 3 7 9 9 7 5 3 4 4 5 5 4 3 3 2 1 0 0 0 0 0 0 0 0 0 0 0 0 0 0
3 3 3 3 3 4 3 3 3 6 8 9 7 4 3 4 5 5 5 5 4 3 3 2 1 0 0 0 0 0 0 0 0 0 0 0 0 0
3 3 3 4 5 5 4 4 4 5 6 7 6 4 3 4 5 6 5 6 5 4 3 3 1 0 0 0 0 0 0 0 0 0 0 0 0 0
2 3 4 4 5 6 6 6 6 6 5 4 4 3 3 4 5 6 6 6 6 4 3 3 2 1 1 0 0 0 0 0 0 0 0 0 0 0
2 4 6 5 5 6 7 7 7 6 4 3 3 3 3 3 4 5 6 6 6 5 4 3 3 2 1 0 0 0 0 0 0 0 0 0 0 0
2 4 6 6 6 7 8 8 7 6 4 3 3 3 3 3 3 4 5 5 4 3 3 3 2 1 1 0 0 0 0 0 0 0 0 0 0 0
3 4 4 5 6 7 7 7 6 4 3 3 3 3 3 3 3 3 4 3 2 1 1 1 1 1 0 0 0 0 0 0 0 0 0 0 0 0
3 3 4 5 6 6 6 5 4 2 1 2 3 3 3 3 3 3 3 2 1 0 0 0 1 0 0 0 0 0 0 0 0 0 0 0 0 0

GEFSNE_con_probscp_282.txt.gz
Probability
5 6 6 6 6 6 6 7 6 3 1 1 1 1 0 0 0 0 0 0 0 0 0 0 0 0 0 0 0 0 0 0 0 0 0 0 0 0
7 7 6 6 6 7 8 8 7 6 3 2 2 2 1 0 0 0 0 0 0 0 0 0 0 0 0 0 0 0 0 0 0 0 0 0 0 0
9 8 8 7 8 9 9 10 9 8 6 4 3 2 1 0 0 0 0 0 0 0 0 0 0 0 0 0 0 0 0 0 0 0 0 0 0 0
8 9 9 10 11 11 11 12 12 10 8 6 3 1 0 0 0 0 0 0 0 0 0 0 0 0 0 0 0 0 0 0 0 0 0 0 0 0
10 11 11 12 14 14 12 12 12 11 9 6 3 1 0 0 0 0 0 0 0 0 0 0 0 0 0 0 0 0 0 0 0 0 0 0 0 0
16 15 14 14 14 14 13 12 11 10 8 6 4 2 0 1 1 1 0 0 0 0 0 0 0 0 0 0 0 0 0 0 0 0 0 0 0 0
19 18 16 14 13 12 11 11 10 10 9 8 7 5 3 2 2 2 1 0 0 0 0 0 0 0 0 0 0 0 0 0 0 0 0 0 0 0
19 18 16 14 13 11 9 8 8 8 9 9 9 8 6 4 3 2 1 0 0 0 0 0 0 0 0 0 0 0 0 0 0 0 0 0 0 0
17 17 16 14 13 11 10 8 7 7 8 9 10 9 7 5 4 3 2 1 0 0 0 0 0 0 0 0 0 0 0 0 0 0 0 0 0 0
16 16 15 13 11 10 10 9 8 6 5 7 9 8 7 6 5 5 4 2 1 0 0 0 0 0 0 0 0 0 0 0 0 0 0 0 0 0
16 15 12 10 8 6 8 9 8 5 4 5 6 7 6 6 6 6 6 5 3 1 0 0 0 0 0 0 0 0 0 0 0 0 0 0 0 0
15 13 10 6 4 3 5 8 8 6 5 5 7 7 7 6 5 6 8 8 5 3 2 1 0 0 0 0 0 0 0 0 0 0 0 0 0 0
13 13 9 5 2 1 3 6 6 6 6 7 7 8 7 6 5 6 8 8 6 5 4 2 0 0 0 0 0 0 0 0 0 0 0 0 0 0
13 12 9 4 1 0 1 2 2 3 4 5 6 6 7 6 5 5 7 7 7 6 4 2 0 0 0 0 0 0 0 0 0 0 0 0 0 0
10 9 6 2 0 0 0 0 0 1 3 4 5 6 6 6 5 5 6 7 6 4 3 1 0 0 0 0 0 0 0 0 0 0 0 0 0 0
4 4 3 1 1 1 1 1 1 2 3 4 5 6 6 6 5 5 6 5 5 4 3 2 1 1 0 0 0 0 0 0 0 0 0 0 0 0
1 3 3 2 2 2 2 2 3 3 3 3 4 5 6 5 5 5 5 4 3 4 4 3 3 3 1 0 0 0 0 0 0 0 0 0 0 0
2 3 4 3 4 3 3 3 3 3 3 3 3 4 4 5 4 4 4 3 3 4 4 5 5 5 3 1 0 0 0 0 0 0 0 0 0 0
3 3 3 4 4 4 3 3 3 3 3 3 3 3 3 4 4 4 3 3 3 3 4 5 6 6 4 2 1 0 0 0 0 0 0 0 0 0
3 3 3 3 3 3 4 4 4 3 3 3 3 3 3 3 3 3 3 3 3 3 4 5 5 4 3 4 3 1 0 0 0 0 0 0 0 0
3 3 3 2 1 2 4 6 5 4 4 3 3 3 3 3 3 2 2 3 3 3 3 4 3 2 2 3 3 2 0 0 0 0 0 0 0 0
2 2 1 1 0 1 4 6 6 6 5 4 3 3 3 3 2 1 1 2 3 3 3 3 3 1 0 1 1 1 0 0 0 0 0 0 0 0
1 1 0 0 0 1 3 5 6 6 6 5 4 3 3 3 1 0 0 1 2 3 3 3 3 2 1 0 0 0 0 0 0 0 0 0 0 0

GEFSNE_con_probscp_288.txt.gz
Probability
9 10 10 10 10 12 12 13 15 14 12 13 14 15 17 16 13 12 11 5 1 0 0 0 0 0 0 0 0 0 0 0 0 0 0 0 0 0
11 11 12 12 12 12 12 13 17 18 15 14 14 15 17 15 12 12 11 6 2 1 0 0 0 0 0 0 0 0 0 0 0 0 0 0 0 0
13 13 14 16 16 17 16 18 21 21 19 15 13 15 18 16 13 13 11 7 4 2 0 0 0 0 0 0 0 0 0 0 0 0 0 0 0 0
15 15 15 18 21 24 25 24 23 21 19 16 13 16 19 17 15 13 11 10 7 3 0 0 0 0 0 0 0 0 0 0 0 0 0 0 0 0
18 18 17 18 22 26 27 26 24 22 20 18 17 18 18 16 14 12 11 12 9 4 1 0 0 0 0 0 0 0 0 0 0 0 0 0 0 0
21 21 19 18 20 22 23 23 23 23 22 22 22 21 19 16 13 11 11 12 11 7 3 2 1 1 1 0 0 0 0 0 0 0 0 0 0 0
23 22 20 19 18 18 17 18 20 22 23 24 25 25 22 19 15 12 10 11 10 9 7 5 4 4 3 1 0 0 0 0 0 0 0 0 0 0
22 22 20 18 17 16 13 11 13 16 18 22 25 27 27 25 21 15 12 12 11 10 9 8 6 6 5 3 1 0 0 0 0 0 0 0 0 0
20 21 20 18 18 18 15 11 10 10 13 19 24 28 30 30 26 20 18 17 14 11 9 8 7 6 7 5 2 0 0 0 0 0 0 0 0 0
19 21 21 19 18 18 17 16 14 13 12 14 18 22 24 25 23 22 22 20 16 12 10 8 7 6 7 6 2 0 0 0 0 0 0 0 0 0
20 20 20 19 16 15 16 18 19 18 14 11 11 11 12 12 14 17 19 17 15 13 12 11 9 9 9 7 3 0 0 0 0 0 0 0 0 0
21 20 17 16 13 11 13 17 19 19 16 13 10 8 7 8 8 12 15 16 14 13 13 13 12 12 11 7 4 2 2 1 0 0 0 0 0 0
21 20 17 13 8 5 8 14 16 16 15 14 12 10 10 11 10 11 13 15 15 15 14 14 13 13 11 7 5 5 5 4 2 1 0 0 0 0
19 19 15 9 3 1 3 7 10 10 11 10 9 8 10 12 12 11 12 13 15 14 13 13 13 13 12 10 8 7 7 7 4 2 0 0 0 0
16 15 10 4 1 1 2 3 5 7 9 8 8 6 6 8 9 8 9 11 12 12 11 12 13 13 12 11 10 9 8 8 6 3 1 1 0 0
14 13 8 5 5 6 7 5 6 8 8 9 9 7 5 4 5 5 6 7 8 8 8 9 11 12 11 11 11 10 9 7 6 5 4 2 1 0
13 13 12 12 12 13 12 10 9 9 9 9 8 7 4 3 4 4 4 4 5 5 5 6 7 9 8 9 10 10 9 9 8 8 7 4 2 1
10 13 14 15 16 16 15 14 12 11 9 8 7 6 4 4 5 5 5 4 3 3 2 2 4 6 6 6 7 7 8 9 9 8 6 5 3 2
9 11 13 14 14 15 16 16 14 13 11 8 7 6 5 4 4 5 5 4 3 3 2 1 2 3 3 4 4 4 5 7 7 6 5 4 3 3
12 13 14 15 14 15 15 15 16 15 12 10 7 7 6 5 4 4 4 3 3 4 3 2 1 1 1 1 2 2 2 4 5 6 5 4 3 3
15 15 16 16 15 15 14 13 13 13 12 9 8 7 7 6 5 4 3 3 3 3 3 3 1 0 0 0 1 1 1 2 3 4 5 5 4 4
16 17 18 17 15 14 13 11 10 10 9 9 8 8 7 7 6 5 4 3 3 3 3 3 3 1 0 0 0 0 0 0 1 1 2 3 3 3
16 17 18 17 16 15 14 11 9 8 8 8 8 8 8 8 7 6 5 4 3 3 3 4 3 2 1 0 0 0 0 0 0 0 0 1 2 2

GEFSNE_con_probscp_294.txt.gz
Probability
20 23 25 25 23 21 20 19 19 16 12 12 16 20 21 18 14 17 19 12 4 1 0 0 0 0 0 0 0 0 0 0 0 0 0 0 0 0
21 23 25 24 22 21 21 20 20 18 16 15 17 20 20 16 14 17 19 13 5 1 0 0 0 0 0 0 0 0 0 0 0 0 0 0 0 0
20 20 22 22 21 20 21 22 21 20 18 17 18 21 21 19 17 19 18 14 8 3 0 0 0 0 0 0 0 0 0 0 0 0 0 0 0 0
19 18 19 20 20 20 22 23 22 20 17 16 18 21 23 23 22 21 17 15 11 5 1 0 0 0 0 0 0 0 0 0 0 0 0 0 0 0
23 21 19 21 22 22 24 25 23 20 17 16 18 21 24 24 23 20 17 16 12 7 3 1 0 0 0 0 0 0 0 0 0 0 0 0 0 0
26 24 22 22 24 22 22 23 23 20 18 18 20 24 26 25 22 19 18 18 15 10 7 4 1 1 0 0 0 0 0 0 0 0 0 0 0 0
25 24 23 23 23 20 17 19 20 19 18 19 22 25 27 24 21 19 18 18 16 12 10 7 4 3 2 1 0 0 0 0 0 0 0 0 0 0
25 24 22 22 22 19 17 16 16 16 17 18 21 23 24 22 20 19 18 17 15 13 12 9 6 5 5 3 2 0 0 0 0 0 0 0 0 0
26 26 24 23 23 23 20 18 15 13 14 16 18 20 21 21 19 19 18 16 15 15 13 9 7 7 6 5 4 1 0 0 0 0 0 0 0 0
26 27 27 25 24 24 24 22 19 14 12 13 14 16 16 17 17 17 15 14 15 16 13 9 7 7 6 6 5 1 0 0 0 0 0 0 0 0
26 24 24 24 22 21 22 23 22 18 13 10 9 10 9 10 12 13 13 13 13 15 14 11 8 6 6 6 4 1 0 0 0 0 0 0 0 0
25 23 20 20 18 17 19 21 22 21 17 12 9 9 8 9 11 13 15 16 16 16 15 12 9 6 5 5 3 2 0 0 0 0 0 0 0 0
23 22 19 15 12 12 14 18 19 19 18 16 14 13 14 15 17 17 19 20 19 17 15 13 10 7 6 5 4 2 1 1 1 0 0 0 0 0
20 19 15 10 7 6 8 11 12 13 15 16 17 18 19 19 20 21 21 20 17 14 13 13 11 9 7 6 5 4 3 3 2 1 0 0 0 0
16 13 8 4 3 3 4 5 6 9 12 15 17 19 20 19 20 20 19 16 13 11 11 12 11 10 8 7 6 5 4 4 3 1 0 0 0 0
13 10 6 3 3 4 5 6 9 11 13 15 18 19 18 17 16 15 13 11 10 9 9 9 8 7 8 7 6 4 3 4 4 2 1 1 0 0
14 13 12 10 10 11 12 14 17 16 15 16 18 18 16 14 12 10 9 8 7 7 7 7 6 5 4 5 4 2 2 2 3 2 2 2 1 1
14 16 17 16 16 17 17 18 20 19 16 15 16 16 14 12 11 10 9 7 6 5 5 6 5 4 3 2 1 1 0 1 1 2 2 2 2 2
11 13 16 17 17 17 15 15 18 20 20 18 16 14 13 12 12 11 10 8 6 4 4 5 5 4 3 2 1 0 0 0 0 1 1 2 2 2
9 10 12 14 16 16 13 13 16 20 22 21 19 17 14 13 13 12 10 8 6 4 3 4 4 4 4 3 2 0 0 0 0 0 0 1 1 1
11 10 10 11 13 14 13 12 14 16 19 21 21 19 16 13 12 10 8 7 5 4 3 3 3 4 4 3 2 0 0 0 0 0 0 0 0 0
14 12 10 10 11 12 11 11 10 11 14 17 20 19 16 13 10 8 7 6 5 4 4 4 3 3 4 3 2 1 0 0 0 0 0 0 0 0
15 13 11 10 10 10 11 10 9 9 12 16 17 17 15 12 10 8 7 8 7 6 5 5 4 3 3 3 2 1 0 0 0 0 0 0 0 0

GEFSNE_con_probscp_300.txt.gz
Probability
12 12 12 9 8 6 4 3 3 3 4 4 2 1 1 0 0 0 1 1 1 1 1 2 2 1 0 0 0 1 2 2 1 0 0 0 0 0
11 11 11 10 8 6 4 3 3 4 4 5 4 3 2 1 0 0 1 1 1 1 1 1 1 0 0 0 0 0 1 1 0 0 0 0 0 0
9 9 9 10 8 6 5 4 4 5 6 6 5 3 2 1 0 1 2 2 2 2 1 0 0 0 0 0 0 0 0 0 0 0 0 0 0 0
7 8 9 9 8 6 4 3 3 4 6 6 4 2 2 2 1 2 2 1 1 2 2 0 0 0 0 0 0 0 0 0 0 0 0 0 0 0
5 7 8 8 7 6 5 4 5 5 7 7 6 3 1 1 2 3 2 1 1 1 1 0 0 0 0 0 0 0 0 0 0 0 0 0 0 0
5 6 6 6 7 7 7 7 8 9 10 9 8 5 1 0 1 2 1 0 0 0 0 0 0 0 0 0 0 0 0 0 0 0 0 0 0 0
5 6 6 7 9 9 9 10 11 12 13 12 11 7 3 0 0 0 0 0 0 0 0 0 0 0 0 0 0 0 0 0 0 0 0 0 0 0
7 8 9 10 11 10 9 10 10 12 13 14 13 10 4 1 0 0 0 0 0 0 0 0 0 0 0 0 0 0 0 0 0 0 0 0 0 0
10 11 12 11 11 12 11 10 10 10 11 12 12 11 6 2 0 0 0 0 0 0 0 0 0 0 0 0 0 0 0 0 0 0 0 0 0 0
12 13 13 11 11 13 13 12 11 11 10 10 11 10 6 2 1 0 0 0 0 0 0 0 0 0 0 0 0 0 0 0 0 0 0 0 0 0
11 11 11 10 10 11 12 12 12 13 13 12 10 7 4 2 1 1 1 1 0 0 0 0 0 0 0 0 0 0 0 0 0 0 0 0 0 0
10 9 8 7 7 7 9 10 12 13 15 14 10 6 3 2 2 2 3 4 2 1 0 0 0 0 0 0 0 0 0 0 0 0 0 0 0 0
10 9 8 6 3 3 5 8 11 12 13 13 11 8 6 4 4 4 5 6 5 3 2 0 0 0 0 0 0 0 0 0 0 0 0 0 0 0
10 9 9 6 2 0 2 6 8 9 10 11 11 10 8 6 5 5 5 6 6 5 3 2 1 1 1 1 1 0 0 0 0 0 0 0 0 0
8 8 7 5 2 0 1 2 4 5 7 8 9 9 8 7 6 6 5 5 5 5 4 4 3 3 3 3 2 1 0 0 0 0 0 0 0 0
4 5 4 2 1 1 1 1 2 3 4 5 6 7 7 7 7 7 6 6 6 6 6 6 6 6 5 4 3 1 0 0 0 0 0 0 0 0
2 3 3 2 2 2 3 2 3 3 3 4 5 6 5 5 7 7 6 6 8 8 8 7 6 6 5 5 3 2 1 0 0 0 0 0 0 0
1 2 3 3 3 4 4 4 4 4 4 4 5 5 4 4 6 6 5 6 7 8 7 6 5 4 4 4 3 3 2 1 0 0 0 0 0 0
2 2 3 4 4 5 5 6 6 6 6 6 6 4 3 4 5 6 5 6 7 7 6 5 4 3 3 3 2 2 1 1 0 0 0 0 0 0
2 2 3 4 5 6 6 6 6 6 6 6 6 4 3 4 5 7 6 6 6 6 5 4 3 3 3 2 1 0 0 0 0 0 0 0 0 0
1 1 2 4 6 6 6 6 6 6 6 6 6 5 4 4 5 6 6 6 6 6 5 4 3 3 2 1 0 0 0 0 0 0 0 0 0 0
0 0 1 3 5 6 6 6 6 6 6 6 6 5 3 3 3 3 3 3 4 5 4 3 2 1 1 1 0 0 0 0 0 0 0 0 0 0
0 0 0 2 4 5 6 6 6 6 6 6 6 4 2 1 1 1 1 1 2 3 4 3 1 0 0 1 0 0 0 0 0 0 0 0 0 0

GEFSNE_con_probscp_306.txt.gz
Probability
7 7 7 8 7 6 6 6 5 4 4 3 2 1 0 0 0 0 0 0 1 1 1 1 2 3 5 5 4 3 1 1 2 2 2 3 3 3
7 6 7 7 7 6 6 5 4 3 4 4 3 2 1 0 0 0 0 0 0 0 0 0 1 1 2 3 3 2 0 0 1 1 1 2 3 3
6 6 6 7 6 5 4 4 3 3 4 4 4 3 1 1 1 1 0 0 0 0 0 0 0 0 0 1 1 0 0 0 0 0 0 1 1 2
6 6 6 6 5 4 3 3 3 4 5 6 6 4 2 1 1 1 1 1 1 0 0 0 0 0 0 0 0 0 0 0 0 0 0 0 0 1
6 6 6 5 5 5 4 3 4 5 7 9 9 7 4 2 2 2 2 2 2 0 0 0 0 0 0 0 0 0 0 0 0 0 0 0 0 0
6 7 7 6 6 5 5 4 5 7 9 11 11 10 7 4 4 4 5 4 2 0 0 0 0 0 0 0 0 0 0 0 0 0 0 0 0 0
9 9 10 10 8 6 5 5 6 9 10 11 13 13 10 7 6 6 6 5 2 0 0 0 0 0 0 0 0 0 0 0 0 0 0 0 0 0
12 12 13 14 11 7 5 5 6 8 10 12 14 14 12 10 9 7 6 5 3 1 0 0 0 0 0 0 0 0 0 0 0 0 0 0 0 0
13 13 14 14 12 9 6 4 5 7 9 11 13 14 13 12 11 10 8 6 3 1 0 0 0 0 0 0 0 0 0 0 0 0 0 0 0 0
12 13 13 12 10 8 6 5 5 7 9 10 11 12 12 12 12 12 10 7 4 2 0 0 0 0 0 0 0 0 0 0 0 0 0 0 0 0
11 11 10 9 8 5 4 5 6 8 9 9 9 10 10 9 10 12 11 9 7 4 2 1 1 0 0 0 0 0 0 0 0 0 0 0 0 0
11 10 8 7 5 2 2 4 6 8 10 10 10 9 9 9 9 11 13 12 9 7 4 2 2 1 1 1 0 0 0 0 0 0 0 0 0 0
12 11 9 6 3 1 1 3 5 6 9 11 11 11 11 11 10 9 11 11 9 7 5 4 3 3 2 1 0 0 0 0 0 0 0 0 0 0
12 11 10 5 1 0 0 1 1 3 6 9 10 11 11 11 10 8 7 7 7 7 6 4 3 3 3 2 1 1 0 0 0 0 0 0 0 0
9 9 6 3 1 0 0 1 1 3 5 7 8 9 9 9 9 8 5 4 4 6 6 4 3 3 4 3 3 2 1 0 0 0 0 0 0 0
7 6 4 2 2 2 2 3 4 4 5 5 6 7 7 8 9 8 6 4 4 4 4 3 2 3 4 4 4 4 3 1 0 0 0 0 0 0
6 6 4 4 5 5 4 4 4 4 4 5 6 6 7 8 8 8 7 6 5 4 3 3 3 3 4 4 3 4 5 3 1 0 0 0 0 0
6 6 6 6 6 6 5 3 3 3 4 5 6 6 6 6 7 7 7 6 7 5 3 3 3 3 3 3 2 3 3 3 1 0 0 0 0 0
6 6 6 6 5 4 3 1 1 3 4 5 5 4 4 4 5 6 7 7 7 5 3 2 2 2 3 3 2 1 1 2 2 1 0 0 0 0
6 6 6 5 4 2 1 1 2 3 5 6 5 4 4 4 5 6 6 6 6 5 3 1 1 2 2 2 2 1 1 2 3 2 1 0 0 0
6 6 6 5 3 1 1 1 2 4 5 6 6 5 5 6 6 6 7 7 7 5 3 1 1 2 3 3 2 1 0 1 2 2 1 0 0 0
6 6 6 5 3 1 1 1 2 2 4 4 4 5 5 6 7 7 7 8 8 6 3 2 2 3 4 3 2 1 0 0 1 1 0 0 0 0
5 5 5 5 3 2 2 2 1 2 3 3 3 4 5 6 7 8 8 8 9 7 4 3 4 4 5 3 2 2 1 0 0 0 0 0 0 0

GEFSNE_con_probscp_312.txt.gz
Probability
10 12 15 18 19 18 15 15 13 7 4 7 8 9 10 11 10 11 10 6 2 0 0 0 0 1 2 3 3 3 3 2 2 2 3 4 6 8
13 14 18 20 20 19 17 16 14 10 7 8 9 9 11 12 12 12 12 9 6 2 0 0 0 0 1 2 2 1 1 1 1 1 1 1 3 4
16 17 19 20 21 21 20 19 18 15 10 8 8 9 12 15 15 14 14 13 11 6 2 1 0 0 1 2 1 0 0 0 0 0 0 0 0 1
18 19 19 19 19 20 21 20 19 17 13 10 9 9 13 15 16 15 14 15 13 9 4 2 1 0 0 1 1 0 0 0 0 0 0 0 0 0
20 20 21 20 20 20 20 20 19 17 15 13 12 12 13 14 14 14 14 14 12 10 7 4 2 0 0 0 0 0 0 0 0 0 0 0 0 0
21 21 21 21 22 22 20 20 20 18 15 14 14 14 15 15 13 12 12 13 12 11 10 8 6 4 2 1 0 0 0 0 0 0 0 0 0 0
22 21 20 20 21 19 17 18 20 20 17 14 14 15 17 18 15 13 13 13 12 12 13 12 11 10 8 4 1 0 0 0 0 0 0 0 0 0
24 23 21 19 17 15 13 13 15 18 19 17 15 17 19 20 18 15 15 15 14 15 15 14 14 13 12 8 2 0 0 0 0 0 0 0 0 0
25 25 23 20 18 17 15 13 14 15 18 20 19 19 21 22 20 18 18 18 18 18 18 17 16 13 12 8 3 0 0 0 0 0 0 0 0 0
24 25 23 21 19 19 18 17 17 17 17 18 19 18 18 19 19 19 19 18 19 20 20 19 18 16 13 9 3 0 0 0 0 0 0 0 0 0
22 22 22 20 18 17 18 19 20 20 18 16 15 14 13 12 14 16 17 16 16 19 20 19 18 16 14 9 4 1 0 0 0 0 0 0 0 0
18 19 19 18 15 13 15 18 21 21 20 17 14 12 12 10 10 13 15 14 14 16 19 18 16 14 11 8 5 3 3 2 1 0 0 0 0 0
17 17 18 16 11 9 12 16 18 19 20 19 16 15 15 13 13 13 15 15 15 16 18 18 16 14 11 8 7 6 6 5 3 1 1 0 0 0
16 16 15 12 7 5 7 10 11 12 16 17 16 16 15 14 15 17 18 19 18 17 17 19 18 17 15 12 9 8 8 7 6 4 2 1 0 0
14 13 10 7 4 4 5 6 7 10 13 14 13 13 13 15 17 20 23 23 21 17 17 18 19 20 19 15 10 7 8 8 7 5 4 2 1 0
13 11 8 7 7 8 8 8 10 12 14 13 12 12 14 16 18 21 23 23 20 17 16 17 19 20 20 16 11 7 6 7 7 6 4 3 2 1
12 12 12 12 13 13 12 12 12 15 15 14 14 15 15 15 15 17 20 19 17 15 14 15 17 19 19 16 11 8 6 6 6 5 4 3 1 1
12 14 15 15 15 15 14 13 13 14 16 16 16 16 14 13 12 13 15 16 15 14 14 14 15 16 15 12 9 7 7 7 7 7 5 3 2 2
12 13 14 14 14 13 13 12 12 13 15 15 15 14 13 12 12 12 12 13 14 16 16 16 15 14 12 9 6 4 4 6 8 9 7 5 4 3
11 13 13 13 13 13 13 13 13 13 13 13 12 12 12 11 12 12 12 11 13 15 16 16 16 14 12 10 6 3 3 5 7 9 8 7 5 4
11 12 13 13 14 14 15 15 15 15 14 12 10 9 9 10 12 12 11 10 11 12 13 15 16 15 14 12 9 6 4 3 4 5 6 7 6 5
10 10 11 12 13 14 14 14 14 14 12 9 6 4 5 7 9 9 10 9 9 9 10 12 14 15 15 13 10 7 4 3 3 3 3 4 5 4
8 8 8 10 12 13 12 12 11 10 9 6 3 1 2 4 6 8 9 10 9 8 8 10 12 15 15 13 10 6 5 4 4 4 3 2 2 2

GEFSNE_con_probscp_318.txt.gz
Probability
33 32 32 30 25 23 25 25 21 14 9 8 9 13 17 19 20 22 21 14 6 2 1 0 0 0 1 2 2 1 0 1 4 6 6 5 4 4
30 30 31 31 27 24 25 26 23 18 12 10 11 15 18 18 20 23 23 19 11 5 2 1 1 0 0 1 1 0 0 1 3 5 5 4 4 4
28 28 30 30 28 26 25 25 23 20 15 12 13 17 22 21 21 23 23 21 16 9 4 3 2 1 0 0 0 0 0 0 1 2 3 3 3 3
24 25 26 27 27 25 24 23 22 20 17 14 15 19 24 25 24 22 21 20 16 11 7 4 3 1 0 0 0 0 0 0 0 1 2 1 1 1
21 22 24 25 24 23 22 22 22 21 19 17 19 22 25 26 25 22 20 19 15 12 9 6 3 2 1 0 0 0 0 0 0 1 1 0 0 0
21 22 23 23 23 22 22 23 23 21 20 20 22 23 24 25 25 22 20 18 16 13 11 9 6 4 2 1 0 0 0 0 0 0 0 0 0 0
22 21 20 20 21 20 20 20 21 21 21 21 21 21 22 24 23 20 19 18 17 15 14 12 10 8 6 3 1 0 0 0 0 0 0 0 0 0
23 20 19 19 19 18 17 16 16 18 19 20 20 19 20 22 20 18 17 18 17 17 15 13 13 11 11 9 4 1 0 0 0 0 0 0 0 0
23 22 21 20 20 20 19 17 16 17 18 19 21 22 22 21 19 18 17 17 17 17 15 12 12 13 13 12 6 2 0 0 0 0 0 0 0 0
24 25 24 23 22 22 22 21 20 20 18 19 21 22 22 20 20 19 18 16 15 16 15 12 12 13 14 13 7 2 0 0 0 0 0 0 0 0
24 25 24 23 21 20 21 22 23 22 20 19 20 21 19 17 17 18 18 16 13 13 15 16 14 14 16 16 11 4 0 0 0 0 0 0 0 0
23 22 19 17 15 13 16 19 20 19 18 19 19 19 18 16 16 17 18 16 14 13 15 18 18 16 16 17 14 6 1 0 0 0 0 0 0 0
18 17 14 10 8 8 10 13 13 13 14 16 17 17 18 17 17 18 19 18 16 15 17 19 17 15 15 15 12 8 4 2 1 0 0 0 0 0
13 12 10 7 5 5 6 7 8 8 10 12 13 16 18 19 20 20 20 20 18 17 18 18 16 14 13 11 10 8 6 5 3 1 1 1 0 0
9 8 7 5 4 4 4 5 6 7 9 10 13 17 20 22 22 21 21 20 19 18 18 17 16 15 13 11 10 9 7 6 5 4 3 2 1 1
7 6 6 5 5 5 5 5 7 9 10 11 14 18 21 21 22 21 21 20 19 19 19 18 17 17 16 14 12 10 8 6 6 6 5 4 3 2
6 6 6 6 6 6 7 8 11 14 14 15 17 19 20 19 19 19 20 20 19 19 18 17 17 17 18 17 14 11 10 8 7 7 7 6 4 2
5 6 7 8 9 9 10 12 15 17 18 18 19 19 19 18 16 16 17 17 17 16 15 15 15 15 15 15 12 10 10 10 9 8 8 7 5 2
5 8 10 11 12 13 12 13 14 16 17 17 18 19 20 17 15 13 14 15 14 13 12 12 13 13 11 9 8 7 8 10 9 8 8 8 6 4
7 10 13 13 14 14 13 12 11 11 12 13 14 16 16 15 14 11 10 11 11 9 9 10 12 12 11 8 6 5 5 6 7 6 5 6 6 5
7 9 12 13 12 12 12 11 9 8 8 9 9 9 9 10 9 6 5 6 6 5 6 8 10 12 12 10 7 6 4 3 4 4 3 4 5 4
7 8 9 10 10 10 10 10 8 7 7 7 5 4 3 4 3 2 1 2 2 3 4 5 7 9 10 8 5 4 4 3 3 2 3 3 3 3
7 7 8 8 8 8 8 8 6 6 8 7 5 2 1 1 1 0 0 1 1 1 2 3 4 6 7 4 2 2 2 2 3 3 2 2 1 1